Weather History for KTSP - March, 2013

Change the Weather History Date:

Saturday, March 9, 2013

  Actual Average (KWJF) Record (KWJF)
Temperature  
Mean Temperature 32 °F 52 °F  
Max Temperature 35 °F 66 °F 84 °F (1972)
Min Temperature 28 °F 39 °F 24 °F (2012)
Degree Days  
Heating Degree Days 34    
Month to date heating degree days  
Since 1 July heating degree days  
Cooling Degree Days 0    
Month to date cooling degree days  
Year to date cooling degree days  
Moisture  
Dew Point 33 °F    
Average Humidity 99    
Maximum Humidity 100    
Minimum Humidity 87    
Precipitation  
Precipitation 0.02 in 0.04 in 0.26 in (2001)
Month to date precipitation 0.43  
Year to date precipitation 3.71  
Snow  
Snow 0.00 in - 0.00 in ()
Month to date snowfall  
Since 1 July snowfall  
Snow Depth -    
Sea Level Pressure  
Sea Level Pressure 30.15 in    
Wind  
Wind Speed 12 mph (NW)    
Max Wind Speed 16 mph    
Max Gust Speed 22 mph    
Visibility 4 miles    
Events Fog , Rain    
T = Trace of Precipitation, MM = Missing Value Source: NWS Daily Summary

Daily Weather History Graph

Daily Weather History Graph

Search for Another Location

Airport or City:

Trip Planner

Search our weather history database for the weather conditions in past years. The results will help you decide how hot, cold, wet, or windy it might be!

Date:

Astronomy

Mar. 09, 2013 Rise Set
Actual Time 6:12 AM PST 5:56 PM PST
Civil Twilight 5:46 AM PST 6:21 PM PST
Nautical Twilight 5:17 AM PST 6:51 PM PST
Astronomical Twilight 4:48 AM PST 7:20 PM PST
Moon 4:35 AM PST (3/9) 4:06 PM PST (3/9)
Length of Visible Light 12h 35m
Length of Day
11h 44m
Waning Crescent, 5% of the Moon is Illuminated
Mar 9
Waning Crescent
Mar 11
New
Mar 19
First Quarter
Mar 27
Full
Apr 2
Last Quarter

Hourly Weather History & Observations

Time (PST) Temp. Windchill Dew Point Humidity Pressure Visibility Wind Dir Wind Speed Gust Speed Precip Events Conditions
12:15 AM 33.8 °F 25.8 °F 33.8 °F 100% 29.98 in 3.0 mi WNW 10.4 mph - N/A Rain Light Rain
12:35 AM 32.0 °F 23.0 °F 32.0 °F 100% 29.98 in 2.5 mi WNW 11.5 mph - 0.01 in Rain Light Rain
12:55 AM 33.8 °F 24.3 °F 33.8 °F 100% 29.99 in 0.2 mi WNW 13.8 mph - 0.02 in Rain Light Rain
1:15 AM 33.8 °F 23.5 °F 33.8 °F 100% 29.99 in 0.2 mi WNW 16.1 mph 21.9 mph N/A Rain Light Rain
1:35 AM 33.8 °F 23.9 °F 33.8 °F 100% 29.99 in 0.2 mi West 15.0 mph 21.9 mph N/A Rain Light Rain
1:55 AM 32.0 °F 22.5 °F 32.0 °F 100% 29.99 in 10.0 mi WNW 12.7 mph 21.9 mph N/A   Overcast
2:15 AM 32.0 °F 23.0 °F 32.0 °F 100% 29.99 in 7.0 mi NW 11.5 mph - N/A   Overcast
2:35 AM 32.0 °F 22.1 °F 32.0 °F 100% 29.99 in 5.0 mi NW 13.8 mph 19.6 mph N/A   Overcast
2:55 AM 32.0 °F 22.1 °F 32.0 °F 100% 30.00 in 0.2 mi NW 13.8 mph 17.3 mph N/A Fog Fog
3:15 AM 32.0 °F 22.5 °F 32.0 °F 100% 30.00 in 0.2 mi WNW 12.7 mph - N/A Fog Fog
3:35 AM 32.0 °F 21.6 °F 32.0 °F 100% 30.00 in 0.2 mi NW 15.0 mph 20.7 mph N/A Fog Fog
3:55 AM 32.0 °F 21.6 °F 32.0 °F 100% 30.01 in 0.2 mi NW 15.0 mph 19.6 mph N/A Rain Light Rain
4:15 AM 32.0 °F 21.2 °F 32.0 °F 100% 30.01 in 0.2 mi WNW 16.1 mph - N/A Rain Light Rain
4:35 AM 32.0 °F 21.2 °F 32.0 °F 100% 30.02 in 0.2 mi WNW 16.1 mph 21.9 mph N/A Rain Light Rain
4:55 AM 32.0 °F 21.6 °F 32.0 °F 100% 30.03 in 0.2 mi WNW 15.0 mph - N/A Rain Light Rain
5:15 AM 32.0 °F 22.5 °F 32.0 °F 100% 30.03 in 0.2 mi WNW 12.7 mph - N/A Rain Light Rain
5:35 AM 32.0 °F 22.5 °F 32.0 °F 100% 30.04 in 0.2 mi NW 12.7 mph - N/A Rain Light Rain
5:55 AM 32.0 °F 22.1 °F 32.0 °F 100% 30.05 in 0.2 mi WNW 13.8 mph - N/A Rain Light Rain
6:15 AM 32.0 °F 22.1 °F 32.0 °F 100% 30.06 in 0.2 mi WNW 13.8 mph 18.4 mph N/A Rain Light Rain
6:35 AM 32.0 °F 22.5 °F 32.0 °F 100% 30.07 in 0.2 mi NW 12.7 mph - N/A Rain Light Rain
6:55 AM 32.0 °F 22.1 °F 32.0 °F 100% 30.08 in 0.5 mi WNW 13.8 mph - N/A Rain Light Freezing Rain
7:15 AM 32.0 °F 22.5 °F 32.0 °F 100% 30.09 in 1.0 mi NW 12.7 mph - N/A Rain Light Freezing Rain
7:35 AM 32.0 °F 23.0 °F 32.0 °F 100% 30.10 in 2.0 mi NW 11.5 mph - N/A Rain Light Freezing Rain
7:55 AM 32.0 °F 22.1 °F 32.0 °F 100% 30.11 in 0.8 mi NW 13.8 mph - N/A Rain Light Rain
8:15 AM 32.0 °F 22.1 °F 32.0 °F 100% 30.11 in 0.8 mi NW 13.8 mph - N/A   Overcast
8:35 AM 32.0 °F 22.5 °F 32.0 °F 100% 30.12 in 0.2 mi NW 12.7 mph - N/A Fog Fog
8:55 AM 32.0 °F 23.0 °F 32.0 °F 100% 30.12 in 0.2 mi NW 11.5 mph - N/A Rain Light Rain
9:15 AM 32.0 °F 23.6 °F 32.0 °F 100% 30.13 in 3.0 mi NW 10.4 mph - N/A Rain Light Rain
9:35 AM 32.0 °F 23.6 °F 32.0 °F 100% 30.14 in 8.0 mi WNW 10.4 mph 17.3 mph N/A   Overcast
9:55 AM 33.8 °F 25.3 °F 33.8 °F 100% 30.14 in 10.0 mi NW 11.5 mph 17.3 mph N/A   Overcast
10:15 AM 33.8 °F 24.3 °F 33.8 °F 100% 30.15 in 10.0 mi WNW 13.8 mph - N/A   Overcast
10:35 AM 35.6 °F 26.6 °F 35.6 °F 100% 30.15 in 10.0 mi West 13.8 mph - N/A   Overcast
10:55 AM 35.6 °F 28.0 °F 35.6 °F 100% 30.16 in 9.0 mi WNW 10.4 mph - N/A   Overcast
11:15 AM 33.8 °F 24.3 °F 33.8 °F 100% 30.17 in 5.0 mi NW 13.8 mph 18.4 mph N/A   Overcast
11:35 AM 35.6 °F 28.0 °F 35.6 °F 100% 30.17 in 0.5 mi WNW 10.4 mph - N/A Fog Fog
11:55 AM 35.6 °F 27.5 °F 35.6 °F 100% 30.17 in 1.5 mi NW 11.5 mph - N/A Rain Light Rain
12:15 PM 35.6 °F 28.0 °F 35.6 °F 100% 30.17 in 2.5 mi NW 10.4 mph - N/A   Overcast
12:35 PM 35.6 °F 27.1 °F 35.6 °F 100% 30.18 in 0.5 mi WNW 12.7 mph - N/A Fog Fog
12:55 PM 35.6 °F 28.0 °F 35.6 °F 100% 30.17 in 0.2 mi WNW 10.4 mph - N/A Fog Fog
1:15 PM 35.6 °F 28.0 °F 35.6 °F 100% 30.17 in 0.2 mi NW 10.4 mph - N/A Fog Fog
1:35 PM 35.6 °F 26.6 °F 35.6 °F 100% 30.18 in 0.2 mi NW 13.8 mph - N/A   Overcast
1:55 PM 35.6 °F 27.1 °F 35.6 °F 100% 30.18 in 0.2 mi NW 12.7 mph - N/A Rain Light Rain
2:15 PM 35.6 °F 26.6 °F 35.6 °F 100% 30.18 in 0.2 mi NW 13.8 mph 18.4 mph N/A Rain Light Rain
2:35 PM 35.6 °F 26.2 °F 35.6 °F 100% 30.19 in 0.2 mi NW 15.0 mph 20.7 mph N/A Fog Fog
2:55 PM 35.6 °F 26.2 °F 35.6 °F 100% 30.19 in 0.8 mi WNW 15.0 mph - N/A   Overcast
3:15 PM 35.6 °F 26.2 °F 35.6 °F 100% 30.19 in 1.8 mi NW 15.0 mph - N/A   Overcast
3:35 PM 35.6 °F 26.6 °F 35.6 °F 100% 30.20 in 3.0 mi NW 13.8 mph 19.6 mph N/A   Overcast
3:55 PM 35.6 °F 26.2 °F 35.6 °F 100% 30.20 in 4.0 mi NW 15.0 mph - N/A   Overcast
4:15 PM 35.6 °F 26.2 °F 35.6 °F 100% 30.20 in 5.0 mi NW 15.0 mph 18.4 mph N/A   Overcast
4:35 PM 35.6 °F 26.2 °F 35.6 °F 100% 30.21 in 5.0 mi NW 15.0 mph - N/A   Overcast
4:55 PM 35.6 °F 26.2 °F 35.6 °F 100% 30.21 in 5.0 mi NW 15.0 mph - N/A   Overcast
5:15 PM 35.6 °F 26.6 °F 35.6 °F 100% 30.22 in 5.0 mi NW 13.8 mph 19.6 mph N/A   Overcast
5:35 PM 35.6 °F 27.1 °F 35.6 °F 100% 30.23 in 5.0 mi NW 12.7 mph - N/A   Overcast
5:55 PM 35.6 °F 27.1 °F 35.6 °F 100% 30.23 in 5.0 mi NW 12.7 mph - N/A   Overcast
6:15 PM 35.6 °F 28.0 °F 35.6 °F 100% 30.24 in 7.0 mi NW 10.4 mph - N/A   Overcast
6:35 PM 35.6 °F 28.0 °F 35.6 °F 100% 30.25 in 6.0 mi NNW 10.4 mph - N/A   Overcast
6:55 PM 35.6 °F 28.6 °F 35.6 °F 100% 30.25 in 6.0 mi NW 9.2 mph - N/A   Overcast
7:15 PM 35.6 °F 28.6 °F 33.8 °F 93% 30.25 in 9.0 mi NW 9.2 mph - N/A   Overcast
7:35 PM 35.6 °F 29.9 °F 32.0 °F 87% 30.26 in 10.0 mi NW 6.9 mph - N/A   Overcast
7:55 PM 35.6 °F 30.7 °F 32.0 °F 87% 30.26 in 10.0 mi WNW 5.8 mph - N/A   Overcast
8:15 PM 35.6 °F 29.9 °F 32.0 °F 87% 30.26 in 10.0 mi WNW 6.9 mph - N/A   Overcast
8:35 PM 33.8 °F 30.8 °F 32.0 °F 93% 30.26 in 10.0 mi NNW 3.5 mph - N/A   Overcast
8:55 PM 32.0 °F - 32.0 °F 100% 30.27 in 10.0 mi Calm Calm - N/A   Partly Cloudy
9:15 PM 32.0 °F - 32.0 °F 100% 30.27 in 9.0 mi Calm Calm - N/A   Clear
9:35 PM 32.0 °F - 30.2 °F 93% 30.28 in 9.0 mi Calm Calm - N/A   Clear
9:55 PM 32.0 °F 28.7 °F 30.2 °F 93% 30.28 in 8.0 mi West 3.5 mph - N/A   Clear
10:15 PM 32.0 °F - 30.2 °F 93% 30.29 in 7.0 mi Calm Calm - N/A   Clear
10:35 PM 30.2 °F - 30.2 °F 100% 30.28 in 5.0 mi Calm Calm - N/A   Clear
10:55 PM 28.4 °F 21.2 °F 28.4 °F 100% 30.28 in 5.0 mi SE 6.9 mph - N/A   Clear
11:15 PM 28.4 °F 24.6 °F 28.4 °F 100% 30.28 in 7.0 mi SSE 3.5 mph - N/A   Clear
11:35 PM 28.4 °F 24.6 °F 28.4 °F 100% 30.28 in 6.0 mi ENE 3.5 mph - N/A   Clear
11:55 PM 28.4 °F 24.6 °F 28.4 °F 100% 30.28 in 7.0 mi East 3.5 mph - N/A   Clear